This demonstration page uses our WeatherBlox Daily Observations layout. Learn more.

36.17497, -115.13722

Hourly Observations for November 15, 2019

Temp ( °F °C ) Dew Point ( °F °C ) Humidity (%) Winds ( mph kmh ) Pressure ( in mb ) Visibility ( mi km ) Precip ( " mm )
12:53 am 00:53 Clear 58 14.4 27 -2.8 31 31 WNW 3 6 30.11 1020 10 16.0934 0 0
1:53 am 01:53 Clear 60 15.6 26 -3.3 27 27 E 3 6 30.11 1020 10 16.0934 0 0
2:53 am 02:53 Clear 59 15 25 -3.9 27 27 Calm 30.1 1019 10 16.0934 0 0
3:53 am 03:53 Clear 56 13.3 26 -3.3 32 32 NNW 3 6 30.11 1020 10 16.0934 0 0
4:53 am 04:53 Clear 54 12.2 26 -3.3 34 34 WNW 3 6 30.11 1020 10 16.0934 0 0
5:53 am 05:53 Clear 54 12.2 26 -3.3 34 34 SW 5 7 30.13 1020 10 16.0934 0 0
6:53 am 06:53 Sunny 56 13.3 25 -3.9 30 30 Calm 30.14 1021 10 16.0934 0 0
7:53 am 07:53 Sunny 59 15 26 -3.3 28 28 Calm 30.15 1021 10 16.0934 0 0
8:53 am 08:53 Sunny 63 17.2 24 -4.4 23 23 Calm 30.16 1021 10 16.0934 0 0
9:53 am 09:53 Sunny 67 19.4 25 -3.9 20 20 SE 3 6 30.15 1021 10 16.0934 0 0
10:53 am 10:53 Sunny 69 20.6 23 -5 17 17 ESE 3 6 30.13 1020 10 16.0934 0 0
11:53 am 11:53 Sunny 72 22.2 24 -4.4 17 17 Calm 30.1 1019 10 16.0934 0 0
12:53 pm 12:53 Sunny 73 22.8 25 -3.9 17 17 Calm 30.07 1018 10 16.0934 0 0
1:53 pm 13:53 Sunny 73 22.8 25 -3.9 17 17 Calm 30.05 1018 10 16.0934 0 0
2:53 pm 14:53 Sunny 75 23.9 25 -3.9 15 15 Calm 30.05 1018 10 16.0934 0 0
3:53 pm 15:53 Sunny 73 22.8 26 -3.3 17 17 Calm 30.05 1018 10 16.0934 0 0
4:53 pm 16:53 Clear 71 21.7 25 -3.9 18 18 Calm 30.06 1018 10 16.0934 0 0
5:53 pm 17:53 Clear 68 20 27 -2.8 21 21 WNW 6 9 30.07 1018 10 16.0934 0 0
6:53 pm 18:53 Clear 64 17.8 29 -1.7 27 27 NW 5 7 30.08 1019 10 16.0934 0 0
7:53 pm 19:53 Clear 62 16.7 29 -1.7 29 29 WNW 6 9 30.08 1019 10 16.0934 0 0
8:53 pm 20:53 Clear 62 16.7 28 -2.2 28 28 NW 6 9 30.08 1019 10 16.0934 0 0
9:53 pm 21:53 Clear 60 15.6 29 -1.7 31 31 W 6 9 30.09 1019 10 16.0934 0 0
10:53 pm 22:53 Clear 60 15.6 28 -2.2 30 30 Calm 30.09 1019 10 16.0934 0 0
11:53 pm 23:53 Clear 58 14.4 23 -5 26 26 NW 7 11 30.09 1019 10 16.0934 0 0

Powered by AerisWeather